STARLINK-1553 (46348 NORAD) Tracking and Keplerian Element Data

This shows tracking and keplerian element data for the satellite.

Feedback or suggestion? Click here.




ElementValue
Catalog46348
NameSTARLINK-1553
Epoch Orbit1514
Epoch Day339.00002315
Epoch Year2020
RAAN342.1173
Inclination52.9992
Eccentricity0.0005479
Argument of Perigee293.861
Mean Anonmoly198.3708
Mean Motion15.50798964
Decay Rate-0.00876136
L11 46348U 20062Z 20339.00002315 -.00876136 00000-0 -16383-1 0 9998
L22 46348 52.9992 342.1173 0005479 293.8610 198.3708 15.50798964 15149

Live tracking and technical data element details for STARLINK-1553 (NORAD 46348). STARLINK-1553 can be tracked NOW for your location showing map with azimuth and elevation plus other details from your city location.

Track the satellite on the map from your city or location and see movement details for azimuth, elevation, latitude, longitude, range, height, and movement on the map or in text.







IsCatalogInMostPopularTable: catalog: 46348, numindb: 23
Update: records affected: 1



GetName: 46348 STARLINK-1553

Hit Count: updated at: Sun, 06 Dec 2020 00:44:52 GMT